STARLINK-35994

Last updated on Mon Dec 15 2025 00:02:12 GMT+0000 (Coordinated Universal Time)

1 66818U 25278AD 25348.25003472 -.01399180 00000+0 -72414-2 0 9990 2 66818 42.9974 242.6975 0001706 268.7633 160.4612 15.82648371 3200
UTC large
Height (km)
Speed (km/s)
/
Latitude / Longitude
Inclination (degrees)
Orbital Period (minutes)
Azimuth
Elevation
Range (km)
Doppler Factor

Next 0 passes for location: London (51.5072 / 0.1276)

Sorry there are no passes over London.